Regional Weather Roundup
Issued by NWS Little Rock, AR

Home | Current Version | Previous Version | Graphics & Text | Print | Product List | Glossary On
Versions: 1 2 3 4 5 6 7 8 9 10 11 12 13 14 15 16 17 18 19 20 21 22 23 24 25 26 27 28 29 30 31 32 33 34 35 36 37 38 39 40 41 42 43 44 45 46 47 48 49 50
210
ASUS44 KLZK 242205
RWRLZK

WEATHER ROUNDUP FOR ARKANSAS
NATIONAL WEATHER SERVICE LITTLE ROCK AR
500 PM CDT TUE MAY 24 2016

NOTE: "FAIR" INDICATES FEW OR NO CLOUDS BELOW 12,000 FEET WITH NO
SIGNIFICANT WEATHER AND/OR OBSTRUCTIONS TO VISIBILITY.

ARZ001-003-010-029-242300-
NORTHWEST ARKANSAS

CITY           SKY/WX    TMP DP  RH WIND       PRES   REMARKS
FAYETTEVILLE   CLOUDY    79  70  74 SE7       29.99F
FORT SMITH     PTSUNNY   84  70  62 S6        29.95S HX  88
HARRISON       LGT RAIN  64  63  96 SE8       30.04F
BENTONVILLE    CLOUDY    79  66  65 S10       30.00F
ROGERS         CLOUDY    76  69  79 E12       30.00R
SILOAM SPGS    CLOUDY    82  63  51 S9        29.98S
HIGHFILL       MOSUNNY   80  70  71 SE10      29.98S
SPRINGDALE     MOSUNNY   75  64  69 SE9       30.02S
$$

ARZ004-005-016-242300-
NORTH CENTRAL ARKANSAS

CITY           SKY/WX    TMP DP  RH WIND       PRES   REMARKS
BATESVILLE     CLOUDY    82  72  69 W3        30.02R HX  87
FLIPPIN        CLOUDY   N/A N/A N/A E8        30.04R THUNDER
MTN HOME         N/A    N/A N/A N/A MISG      30.07R THUNDER
$$

ARZ040-041-242300-
WEST CENTRAL ARKANSAS

CITY           SKY/WX    TMP DP  RH WIND       PRES   REMARKS
MENA           PTSUNNY   82  73  74 S6        30.00S HX  88
MOUNT IDA      PTSUNNY   81  70  69 VRB5      29.98S
$$

ARZ009-017-025-026-028-242300-
NORTHEAST ARKANSAS

CITY           SKY/WX    TMP DP  RH WIND       PRES   REMARKS
CORNING        LGT RAIN  68  66  94 NW30G39   30.09R
JONESBORO      TSTM      69  68  96 N9        30.03F FOG
NEWPORT        CLOUDY    73  71  93 N8        30.01R
WALNUT RIDGE   CLOUDY    68  64  88 N9        30.03S
BLYTHEVILLE    CLOUDY    83  62  49 CALM      30.04R THUNDER
NW BLYTHEVILLE CLOUDY    84  63  48 NE9       30.03R HX  85
$$

ARZ022-023-033-042-044-242300-
CENTRAL ARKANSAS

CITY           SKY/WX    TMP DP  RH WIND       PRES   REMARKS
LITTLE ROCK    PTSUNNY   86  67  52 S10       29.98S HX  89
N LITTLE ROCK    N/A     85  67  55 S7        29.97S HX  88
JACKSONVILLE   MOSUNNY   88  68  50 S14G20    29.98F HX  91
SEARCY         MOSUNNY   84  70  61 S9        30.00S HX  88
HOT SPRINGS    CLOUDY    85  68  56 SW8       29.99S HX  88
RUSSELLVILLE   LGT RAIN  81  68  64 S3        29.96S
CLINTON        PTSUNNY   77  72  83 CALM      30.01R
$$

ARZ036-242300-
EAST ARKANSAS

CITY           SKY/WX    TMP DP  RH WIND       PRES   REMARKS
WEST MEMPHIS   CLOUDY    85  64  49 S15G21    29.99R HX  86
$$

ARZ050-053-066-070-073-242300-
SOUTHWEST ARKANSAS

CITY           SKY/WX    TMP DP  RH WIND       PRES   REMARKS
ARKADELPHIA    MOCLDY    84  75  74 SW7       29.99R HX  91
CAMDEN         CLOUDY    84  64  51 S5        29.98S HX  86
TEXARKANA      CLOUDY    83  71  67 S8        29.97F HX  87
EL DORADO      CLOUDY    84  68  58 S7        29.99F HX  87
DE QUEEN       PTSUNNY   83  73  72 S8        29.94F HX  89
$$

ARZ056-057-069-242300-
SOUTHEAST ARKANSAS

CITY           SKY/WX    TMP DP  RH WIND       PRES   REMARKS
PINE BLUFF     MOSUNNY   87  65  47 S12       29.99S HX  89
STUTTGART      SUNNY     90  64  43 S14       30.00S HX  91
MONTICELLO     SUNNY     91  61  36 S13       30.00S HX  91

$$






USA.gov is the U.S. government's official web portal to all federal, state and local government web resources and services.